Time,TemperatureF,DewpointF,PressureIn,WindDirection,WindDirectionDegrees,WindSpeedMPH,WindSpeedGustMPH,Humidity,HourlyPrecipIn,Conditions,Clouds,dailyrainin,SoftwareType,DateUTC
2013-06-26 00:00:00,82.1,71.8,29.72,SSE,165,3.0,5.0,71,0.00,,,0.00,Wunderground v.1.15,2013-06-26 05:00:00,
2013-06-26 00:14:00,81.9,72.0,29.71,SSE,165,4.0,4.0,72,0.00,,,0.00,Wunderground v.1.15,2013-06-26 05:14:00,
2013-06-26 00:20:00,81.8,71.9,29.71,SSE,148,3.0,4.0,72,0.00,,,0.00,Wunderground v.1.15,2013-06-26 05:20:00,
2013-06-26 00:34:00,81.7,71.8,29.71,SSE,163,4.0,4.0,72,0.00,,,0.00,Wunderground v.1.15,2013-06-26 05:34:00,
2013-06-26 00:40:00,81.6,71.7,29.71,South,169,4.0,7.0,72,0.00,,,0.00,Wunderground v.1.15,2013-06-26 05:40:00,
2013-06-26 00:54:00,81.3,71.4,29.70,South,174,3.0,3.0,72,0.00,,,0.00,Wunderground v.1.15,2013-06-26 05:54:00,
2013-06-26 01:00:00,81.3,71.4,29.71,South,190,3.0,3.0,72,0.00,,,0.00,Wunderground v.1.15,2013-06-26 06:00:00,
2013-06-26 01:14:00,81.2,71.3,29.71,SSE,163,3.0,3.0,72,0.00,,,0.00,Wunderground v.1.15,2013-06-26 06:14:00,
2013-06-26 01:20:00,81.1,71.2,29.70,SSE,168,3.0,5.0,72,0.00,,,0.00,Wunderground v.1.15,2013-06-26 06:20:00,
2013-06-26 01:34:00,81.1,70.8,29.71,SSE,167,3.0,3.0,71,0.00,,,0.00,Wunderground v.1.15,2013-06-26 06:34:00,
2013-06-26 01:40:00,81.0,70.7,29.71,SSE,161,2.0,5.0,71,0.00,,,0.00,Wunderground v.1.15,2013-06-26 06:40:00,
2013-06-26 01:54:00,80.9,70.6,29.72,South,181,2.0,2.0,71,0.00,,,0.00,Wunderground v.1.15,2013-06-26 06:54:00,
2013-06-26 02:00:00,80.8,70.5,29.71,South,169,2.0,2.0,71,0.00,,,0.00,Wunderground v.1.15,2013-06-26 07:00:00,
2013-06-26 02:14:00,80.8,70.5,29.72,SSE,161,2.0,2.0,71,0.00,,,0.00,Wunderground v.1.15,2013-06-26 07:14:00,
2013-06-26 02:20:00,80.7,70.4,29.72,SSE,151,2.0,6.0,71,0.00,,,0.00,Wunderground v.1.15,2013-06-26 07:20:00,
2013-06-26 02:34:00,80.5,70.2,29.71,SSE,164,2.0,2.0,71,0.00,,,0.00,Wunderground v.1.15,2013-06-26 07:34:00,
2013-06-26 02:40:00,80.5,70.2,29.71,SSE,157,2.0,6.0,71,0.00,,,0.00,Wunderground v.1.15,2013-06-26 07:40:00,
2013-06-26 02:54:00,80.5,70.2,29.70,SSE,164,2.0,2.0,71,0.00,,,0.00,Wunderground v.1.15,2013-06-26 07:54:00,
2013-06-26 03:00:00,80.5,70.2,29.70,SSE,157,2.0,2.0,71,0.00,,,0.00,Wunderground v.1.15,2013-06-26 08:00:00,
2013-06-26 03:14:00,80.3,70.0,29.70,South,169,2.0,3.0,71,0.00,,,0.00,Wunderground v.1.15,2013-06-26 08:14:00,
2013-06-26 03:20:00,80.2,69.9,29.70,South,169,2.0,6.0,71,0.00,,,0.00,Wunderground v.1.15,2013-06-26 08:20:00,
2013-06-26 03:34:00,80.0,70.2,29.69,SSE,161,2.0,2.0,72,0.00,,,0.00,Wunderground v.1.15,2013-06-26 08:34:00,
2013-06-26 03:40:00,79.9,70.1,29.69,SSE,164,1.0,3.0,72,0.00,,,0.00,Wunderground v.1.15,2013-06-26 08:40:00,
2013-06-26 03:54:00,79.7,69.9,29.68,SSE,163,2.0,2.0,72,0.00,,,0.00,Wunderground v.1.15,2013-06-26 08:54:00,
2013-06-26 04:00:00,79.6,69.8,29.68,SSE,164,1.0,1.0,72,0.00,,,0.00,Wunderground v.1.15,2013-06-26 09:00:00,
2013-06-26 04:14:00,79.3,69.9,29.70,SSE,168,1.0,1.0,73,0.00,,,0.00,Wunderground v.1.15,2013-06-26 09:14:00,
2013-06-26 04:20:00,79.2,69.8,29.70,SSE,168,2.0,3.0,73,0.00,,,0.00,Wunderground v.1.15,2013-06-26 09:20:00,
2013-06-26 04:34:00,79.2,69.8,29.70,South,173,2.0,2.0,73,0.00,,,0.00,Wunderground v.1.15,2013-06-26 09:34:00,
2013-06-26 04:40:00,79.2,69.8,29.71,South,171,2.0,3.0,73,0.00,,,0.00,Wunderground v.1.15,2013-06-26 09:40:00,
2013-06-26 04:54:00,79.2,69.4,29.70,South,178,2.0,2.0,72,0.00,,,0.00,Wunderground v.1.15,2013-06-26 09:54:00,
2013-06-26 05:00:00,79.2,69.4,29.70,SSE,164,2.0,2.0,72,0.00,,,0.00,Wunderground v.1.15,2013-06-26 10:00:00,
2013-06-26 05:16:00,79.2,69.4,29.71,South,182,1.0,2.0,72,0.00,,,0.00,Wunderground v.1.15,2013-06-26 10:16:00,
2013-06-26 05:22:00,79.3,69.5,29.71,SE,144,1.0,2.0,72,0.00,,,0.00,Wunderground v.1.15,2013-06-26 10:22:00,
2013-06-26 05:34:00,79.2,69.0,29.71,SSE,164,1.0,2.0,71,0.00,,,0.00,Wunderground v.1.15,2013-06-26 10:34:00,
2013-06-26 05:40:00,79.4,69.2,29.71,SSE,153,2.0,3.0,71,0.00,,,0.00,Wunderground v.1.15,2013-06-26 10:40:00,
2013-06-26 05:54:00,79.5,68.9,29.72,SSE,165,1.0,1.0,70,0.00,,,0.00,Wunderground v.1.15,2013-06-26 10:54:00,
2013-06-26 06:00:00,79.5,68.4,29.72,SW,227,2.0,2.0,69,0.00,,,0.00,Wunderground v.1.15,2013-06-26 11:00:00,
2013-06-26 06:14:00,79.6,68.5,29.73,SE,146,2.0,6.0,69,0.00,,,0.00,Wunderground v.1.15,2013-06-26 11:14:00,
2013-06-26 06:20:00,79.5,68.4,29.73,SSE,163,2.0,6.0,69,0.00,,,0.00,Wunderground v.1.15,2013-06-26 11:20:00,
2013-06-26 06:34:00,79.4,68.3,29.73,SSE,159,2.0,2.0,69,0.00,,,0.00,Wunderground v.1.15,2013-06-26 11:34:00,
2013-06-26 06:40:00,79.3,68.2,29.73,SSE,159,1.0,2.0,69,0.00,,,0.00,Wunderground v.1.15,2013-06-26 11:40:00,
2013-06-26 06:54:00,79.2,68.1,29.73,SSE,168,2.0,2.0,69,0.00,,,0.00,Wunderground v.1.15,2013-06-26 11:54:00,
2013-06-26 07:00:00,79.1,68.1,29.74,SSE,154,2.0,2.0,69,0.00,,,0.00,Wunderground v.1.15,2013-06-26 12:00:00,
2013-06-26 07:14:00,78.9,67.9,29.74,SSE,155,2.0,2.0,69,0.00,,,0.00,Wunderground v.1.15,2013-06-26 12:14:00,
2013-06-26 07:20:00,79.0,68.0,29.74,SSE,148,1.0,2.0,69,0.00,,,0.00,Wunderground v.1.15,2013-06-26 12:20:00,
2013-06-26 07:34:00,79.1,68.1,29.75,SE,141,2.0,3.0,69,0.00,,,0.00,Wunderground v.1.15,2013-06-26 12:34:00,
2013-06-26 07:40:00,78.9,67.9,29.75,South,182,2.0,4.0,69,0.00,,,0.00,Wunderground v.1.15,2013-06-26 12:40:00,
2013-06-26 07:54:00,79.2,68.1,29.75,SSW,196,1.0,1.0,69,0.00,,,0.00,Wunderground v.1.15,2013-06-26 12:54:00,
2013-06-26 08:00:00,79.3,68.2,29.75,South,171,1.0,6.0,69,0.00,,,0.00,Wunderground v.1.15,2013-06-26 13:00:00,
2013-06-26 08:14:00,79.4,68.3,29.75,South,171,1.0,1.0,69,0.00,,,0.00,Wunderground v.1.15,2013-06-26 13:14:00,
2013-06-26 08:20:00,79.4,68.3,29.76,South,178,1.0,13.0,69,0.00,,,0.00,Wunderground v.1.15,2013-06-26 13:20:00,
2013-06-26 08:34:00,80.3,69.2,29.76,South,175,0.0,0.0,69,0.00,,,0.00,Wunderground v.1.15,2013-06-26 13:34:00,
2013-06-26 08:40:00,81.3,69.3,29.76,South,173,1.0,1.0,67,0.00,,,0.00,Wunderground v.1.15,2013-06-26 13:40:00,
2013-06-26 08:54:00,83.2,70.2,29.75,South,186,1.0,1.0,65,0.00,,,0.00,Wunderground v.1.15,2013-06-26 13:54:00,
2013-06-26 09:00:00,83.8,69.9,29.75,South,177,2.0,2.0,63,0.00,,,0.00,Wunderground v.1.15,2013-06-26 14:00:00,
2013-06-26 09:14:00,85.2,70.2,29.76,WSW,255,1.0,3.0,61,0.00,,,0.00,Wunderground v.1.15,2013-06-26 14:14:00,
2013-06-26 09:20:00,85.8,70.8,29.76,South,169,1.0,4.0,61,0.00,,,0.00,Wunderground v.1.15,2013-06-26 14:20:00,
2013-06-26 09:34:00,85.8,70.8,29.76,SW,218,3.0,3.0,61,0.00,,,0.00,Wunderground v.1.15,2013-06-26 14:34:00,
2013-06-26 09:40:00,86.0,70.5,29.76,SE,138,2.0,3.0,60,0.00,,,0.00,Wunderground v.1.15,2013-06-26 14:40:00,
2013-06-26 09:54:00,86.8,71.2,29.76,SSE,162,2.0,2.0,60,0.00,,,0.00,Wunderground v.1.15,2013-06-26 14:54:00,
2013-06-26 10:00:00,87.1,71.0,29.76,NW,325,2.0,2.0,59,0.00,,,0.00,Wunderground v.1.15,2013-06-26 15:00:00,
2013-06-26 10:14:00,87.4,71.3,29.76,SSE,167,2.0,2.0,59,0.00,,,0.00,Wunderground v.1.15,2013-06-26 15:14:00,
2013-06-26 10:20:00,88.1,72.0,29.76,SSE,161,1.0,6.0,59,0.00,,,0.00,Wunderground v.1.15,2013-06-26 15:20:00,
2013-06-26 10:34:00,88.8,72.1,29.76,SSE,165,2.0,2.0,58,0.00,,,0.00,Wunderground v.1.15,2013-06-26 15:34:00,
2013-06-26 10:40:00,88.6,71.9,29.76,SSE,152,2.0,5.0,58,0.00,,,0.00,Wunderground v.1.15,2013-06-26 15:40:00,
2013-06-26 10:54:00,88.4,72.2,29.76,South,175,3.0,3.0,59,0.00,,,0.00,Wunderground v.1.15,2013-06-26 15:54:00,
2013-06-26 11:00:00,89.2,72.5,29.76,SSE,159,3.0,3.0,58,0.00,,,0.00,Wunderground v.1.15,2013-06-26 16:00:00,
2013-06-26 11:14:00,90.3,72.5,29.77,SSW,194,2.0,2.0,56,0.00,,,0.00,Wunderground v.1.15,2013-06-26 16:14:00,
2013-06-26 11:20:00,90.0,73.2,29.77,SSE,164,3.0,3.0,58,0.00,,,0.00,Wunderground v.1.15,2013-06-26 16:20:00,
2013-06-26 11:34:00,90.2,72.9,29.77,SSE,155,3.0,4.0,57,0.00,,,0.00,Wunderground v.1.15,2013-06-26 16:34:00,
2013-06-26 11:40:00,90.1,72.8,29.78,SSE,163,3.0,5.0,57,0.00,,,0.00,Wunderground v.1.15,2013-06-26 16:40:00,
2013-06-26 11:54:00,90.8,72.9,29.78,SSW,199,3.0,3.0,56,0.00,,,0.00,Wunderground v.1.15,2013-06-26 16:54:00,
2013-06-26 12:00:00,91.3,73.4,29.77,SSE,167,2.0,3.0,56,0.00,,,0.00,Wunderground v.1.15,2013-06-26 17:00:00,
2013-06-26 12:14:00,92.2,73.7,29.78,SSE,166,2.0,5.0,55,0.00,,,0.00,Wunderground v.1.15,2013-06-26 17:14:00,
2013-06-26 12:20:00,92.4,73.9,29.77,South,187,2.0,5.0,55,0.00,,,0.00,Wunderground v.1.15,2013-06-26 17:20:00,
2013-06-26 12:34:00,93.0,74.4,29.77,SSE,149,2.0,6.0,55,0.00,,,0.00,Wunderground v.1.15,2013-06-26 17:34:00,
2013-06-26 12:40:00,93.5,73.8,29.77,South,182,2.0,6.0,53,0.00,,,0.00,Wunderground v.1.15,2013-06-26 17:40:00,
2013-06-26 12:54:00,92.5,74.0,29.77,South,186,3.0,3.0,55,0.00,,,0.00,Wunderground v.1.15,2013-06-26 17:54:00,
2013-06-26 13:00:00,92.7,74.7,29.77,West,281,3.0,3.0,56,0.00,,,0.00,Wunderground v.1.15,2013-06-26 18:00:00,
2013-06-26 13:14:00,94.0,74.8,29.77,South,180,2.0,3.0,54,0.00,,,0.00,Wunderground v.1.15,2013-06-26 18:14:00,
2013-06-26 13:20:00,93.4,73.7,29.77,South,171,2.0,3.0,53,0.00,,,0.00,Wunderground v.1.15,2013-06-26 18:20:00,
2013-06-26 13:34:00,93.8,75.2,29.77,SE,141,2.0,7.0,55,0.00,,,0.00,Wunderground v.1.15,2013-06-26 18:34:00,
2013-06-26 13:40:00,94.6,75.4,29.77,SW,232,2.0,7.0,54,0.00,,,0.00,Wunderground v.1.15,2013-06-26 18:40:00,
2013-06-26 13:54:00,93.3,75.3,29.77,SSE,159,4.0,4.0,56,0.00,,,0.00,Wunderground v.1.15,2013-06-26 18:54:00,
2013-06-26 14:00:00,93.5,74.9,29.77,South,169,3.0,5.0,55,0.00,,,0.00,Wunderground v.1.15,2013-06-26 19:00:00,
2013-06-26 14:14:00,94.1,75.5,29.76,SE,146,2.0,7.0,55,0.00,,,0.00,Wunderground v.1.15,2013-06-26 19:14:00,
2013-06-26 14:20:00,94.4,75.7,29.76,SE,133,2.0,7.0,55,0.00,,,0.00,Wunderground v.1.15,2013-06-26 19:20:00,
2013-06-26 14:34:00,96.2,75.7,29.76,South,170,1.0,2.0,52,0.00,,,0.00,Wunderground v.1.15,2013-06-26 19:34:00,
2013-06-26 14:40:00,96.5,76.6,29.76,South,169,2.0,4.0,53,0.00,,,0.00,Wunderground v.1.15,2013-06-26 19:40:00,
2013-06-26 14:54:00,96.1,76.2,29.76,SSE,159,2.0,6.0,53,0.00,,,0.00,Wunderground v.1.15,2013-06-26 19:54:00,
2013-06-26 15:00:00,96.7,76.2,29.75,South,183,2.0,2.0,52,0.00,,,0.00,Wunderground v.1.15,2013-06-26 20:00:00,
2013-06-26 15:14:00,95.8,76.5,29.76,South,171,3.0,3.0,54,0.00,,,0.00,Wunderground v.1.15,2013-06-26 20:14:00,
2013-06-26 15:20:00,96.6,76.1,29.75,South,171,1.0,3.0,52,0.00,,,0.00,Wunderground v.1.15,2013-06-26 20:20:00,
2013-06-26 15:34:00,96.8,75.7,29.75,SSE,152,2.0,2.0,51,0.00,,,0.00,Wunderground v.1.15,2013-06-26 20:34:00,
2013-06-26 15:40:00,96.6,76.1,29.75,SSE,161,2.0,3.0,52,0.00,,,0.00,Wunderground v.1.15,2013-06-26 20:40:00,
2013-06-26 15:54:00,96.6,76.1,29.75,SSE,157,1.0,1.0,52,0.00,,,0.00,Wunderground v.1.15,2013-06-26 20:54:00,
2013-06-26 16:00:00,96.0,76.1,29.75,South,189,2.0,2.0,53,0.00,,,0.00,Wunderground v.1.15,2013-06-26 21:00:00,
2013-06-26 16:14:00,96.2,76.3,29.75,SSE,153,2.0,4.0,53,0.00,,,0.00,Wunderground v.1.15,2013-06-26 21:14:00,
2013-06-26 16:20:00,95.6,76.3,29.75,SSE,167,4.0,8.0,54,0.00,,,0.00,Wunderground v.1.15,2013-06-26 21:20:00,
2013-06-26 16:34:00,96.7,76.8,29.75,SSE,161,1.0,1.0,53,0.00,,,0.00,Wunderground v.1.15,2013-06-26 21:34:00,
2013-06-26 16:40:00,97.1,76.5,29.75,SSE,159,1.0,1.0,52,0.00,,,0.00,Wunderground v.1.15,2013-06-26 21:40:00,
2013-06-26 16:54:00,95.6,76.3,29.74,SSE,164,3.0,5.0,54,0.00,,,0.00,Wunderground v.1.15,2013-06-26 21:54:00,
2013-06-26 17:00:00,95.1,76.4,29.74,SSE,161,4.0,4.0,55,0.00,,,0.00,Wunderground v.1.15,2013-06-26 22:00:00,
2013-06-26 17:14:00,96.6,77.2,29.74,SSE,157,1.0,1.0,54,0.00,,,0.00,Wunderground v.1.15,2013-06-26 22:14:00,
2013-06-26 17:20:00,96.5,76.6,29.74,SSE,161,2.0,2.0,53,0.00,,,0.00,Wunderground v.1.15,2013-06-26 22:20:00,
2013-06-26 17:34:00,96.8,76.8,29.74,South,172,2.0,2.0,53,0.00,,,0.00,Wunderground v.1.15,2013-06-26 22:34:00,
2013-06-26 17:40:00,96.7,76.8,29.74,SSE,167,1.0,5.0,53,0.00,,,0.00,Wunderground v.1.15,2013-06-26 22:40:00,
2013-06-26 17:54:00,95.8,76.5,29.74,SSE,168,2.0,2.0,54,0.00,,,0.00,Wunderground v.1.15,2013-06-26 22:54:00,
2013-06-26 18:00:00,95.3,76.6,29.74,South,175,2.0,4.0,55,0.00,,,0.00,Wunderground v.1.15,2013-06-26 23:00:00,
2013-06-26 18:14:00,95.8,77.0,29.74,SSE,155,1.0,1.0,55,0.00,,,0.00,Wunderground v.1.15,2013-06-26 23:14:00,
2013-06-26 18:20:00,96.1,77.3,29.74,South,173,1.0,4.0,55,0.00,,,0.00,Wunderground v.1.15,2013-06-26 23:20:00,
2013-06-26 18:34:00,95.2,76.5,29.74,SSE,152,2.0,2.0,55,0.00,,,0.00,Wunderground v.1.15,2013-06-26 23:34:00,
2013-06-26 18:40:00,94.6,76.5,29.74,SSE,164,3.0,4.0,56,0.00,,,0.00,Wunderground v.1.15,2013-06-26 23:40:00,
2013-06-26 18:54:00,94.6,76.5,29.74,SSE,164,2.0,2.0,56,0.00,,,0.00,Wunderground v.1.15,2013-06-26 23:54:00,
2013-06-26 19:00:00,94.4,76.3,29.74,South,175,2.0,2.0,56,0.00,,,0.00,Wunderground v.1.15,2013-06-27 00:00:00,
2013-06-26 19:14:00,94.4,76.8,29.74,SSE,159,1.0,2.0,57,0.00,,,0.00,Wunderground v.1.15,2013-06-27 00:14:00,
2013-06-26 19:20:00,94.2,76.6,29.74,SSE,152,1.0,2.0,57,0.00,,,0.00,Wunderground v.1.15,2013-06-27 00:20:00,
2013-06-26 19:34:00,93.7,76.7,29.74,SSE,157,1.0,1.0,58,0.00,,,0.00,Wunderground v.1.15,2013-06-27 00:34:00,
2013-06-26 19:40:00,93.3,76.3,29.74,SSE,163,1.0,1.0,58,0.00,,,0.00,Wunderground v.1.15,2013-06-27 00:40:00,
2013-06-26 19:54:00,92.4,76.0,29.75,SSE,166,2.0,2.0,59,0.00,,,0.00,Wunderground v.1.15,2013-06-27 00:54:00,
2013-06-26 20:00:00,91.9,76.0,29.75,South,173,2.0,2.0,60,0.00,,,0.00,Wunderground v.1.15,2013-06-27 01:00:00,
2013-06-26 20:14:00,91.6,76.2,29.76,SSE,156,1.0,1.0,61,0.00,,,0.00,Wunderground v.1.15,2013-06-27 01:14:00,
2013-06-26 20:20:00,91.3,76.0,29.76,South,170,1.0,2.0,61,0.00,,,0.00,Wunderground v.1.15,2013-06-27 01:20:00,
2013-06-26 20:34:00,90.8,75.5,29.76,SSE,167,1.0,1.0,61,0.00,,,0.00,Wunderground v.1.15,2013-06-27 01:34:00,
2013-06-26 20:40:00,90.5,75.7,29.76,SSE,165,1.0,2.0,62,0.00,,,0.00,Wunderground v.1.15,2013-06-27 01:40:00,
2013-06-26 20:54:00,90.0,75.2,29.76,South,178,1.0,1.0,62,0.00,,,0.00,Wunderground v.1.15,2013-06-27 01:54:00,
2013-06-26 21:00:00,89.8,75.5,29.76,South,177,1.0,1.0,63,0.00,,,0.00,Wunderground v.1.15,2013-06-27 02:00:00,
2013-06-26 21:14:00,89.2,75.4,29.76,South,176,1.0,1.0,64,0.00,,,0.00,Wunderground v.1.15,2013-06-27 02:14:00,
2013-06-26 21:20:00,89.1,75.8,29.76,South,176,0.0,2.0,65,0.00,,,0.00,Wunderground v.1.15,2013-06-27 02:20:00,
2013-06-26 21:34:00,88.7,75.9,29.77,SSE,165,1.0,1.0,66,0.00,,,0.00,Wunderground v.1.15,2013-06-27 02:34:00,
2013-06-26 21:40:00,88.5,75.7,29.78,SSE,165,1.0,1.0,66,0.00,,,0.00,Wunderground v.1.15,2013-06-27 02:40:00,
2013-06-26 21:54:00,88.2,75.9,29.78,SSE,165,0.0,0.0,67,0.00,,,0.00,Wunderground v.1.15,2013-06-27 02:54:00,
2013-06-26 22:00:00,88.0,76.1,29.78,SSE,161,0.0,0.0,68,0.00,,,0.00,Wunderground v.1.15,2013-06-27 03:00:00,
2013-06-26 22:14:00,87.5,76.1,29.78,SSE,154,0.0,2.0,69,0.00,,,0.00,Wunderground v.1.15,2013-06-27 03:14:00,
2013-06-26 22:20:00,87.2,76.2,29.79,SSE,153,1.0,2.0,70,0.00,,,0.00,Wunderground v.1.15,2013-06-27 03:20:00,
2013-06-26 22:34:00,87.0,76.0,29.79,SSE,150,0.0,0.0,70,0.00,,,0.00,Wunderground v.1.15,2013-06-27 03:34:00,
2013-06-26 22:40:00,86.8,76.3,29.79,SSE,161,0.0,6.0,71,0.00,,,0.00,Wunderground v.1.15,2013-06-27 03:40:00,
2013-06-26 22:54:00,86.3,75.8,29.79,SSE,161,1.0,1.0,71,0.00,,,0.00,Wunderground v.1.15,2013-06-27 03:54:00,
2013-06-26 23:00:00,86.2,76.1,29.79,SSE,161,1.0,1.0,72,0.00,,,0.00,Wunderground v.1.15,2013-06-27 04:00:00,
2013-06-26 23:02:00,86.2,76.1,29.79,SSE,160,0.0,1.0,72,0.00,,,0.00,Wunderground v.1.15,2013-06-27 04:02:00,
2013-06-26 23:14:00,85.9,75.8,29.79,SSE,159,0.0,0.0,72,0.00,,,0.00,Wunderground v.1.15,2013-06-27 04:14:00,
2013-06-26 23:16:00,85.9,75.8,29.79,SSE,159,0.0,0.0,72,0.00,,,0.00,Wunderground v.1.15,2013-06-27 04:16:00,
2013-06-26 23:22:00,85.7,75.6,29.79,SSE,157,0.0,0.0,72,0.00,,,0.00,Wunderground v.1.15,2013-06-27 04:22:00,
2013-06-26 23:34:00,85.4,75.3,29.79,SSE,157,0.0,0.0,72,0.00,,,0.00,Wunderground v.1.15,2013-06-27 04:34:00,
2013-06-26 23:36:00,85.4,75.3,29.79,South,176,0.0,0.0,72,0.00,,,0.00,Wunderground v.1.15,2013-06-27 04:36:00,
2013-06-26 23:38:00,85.3,75.7,29.79,South,177,0.0,0.0,73,0.00,,,0.00,Wunderground v.1.15,2013-06-27 04:38:00,
2013-06-26 23:54:00,84.9,75.3,29.79,SSE,165,0.0,0.0,73,0.00,,,0.00,Wunderground v.1.15,2013-06-27 04:54:00,